This demonstration page uses our WeatherBlox Daily Observations layout. Learn more.

Left ArrowRight Arrow

Hourly Observations for November 18, 2015

Temp ( °F °C ) Dew Point ( °F °C ) Humidity (%) Winds ( mph kmh ) Pressure ( in mb ) Visibility ( mi km ) Precip ( " mm )
12:53 am 00:53 Clear 41 5 37 2.8 86 86 NNE 3 6 30.26 1025 9 14 0.00 0.00
1:53 am 01:53 Clear 41 5 36 2.2 82 82 Calm 30.24 1024 9 14 0.00 0.00
2:53 am 02:53 Mostly Cloudy 41 5 37 2.8 86 86 Calm 30.22 1024 9 14 0.00 0.00
3:53 am 03:53 Mostly Clear 40 4.4 36 2.2 86 86 Calm 30.21 1023 9 14 0.00 0.00
4:53 am 04:53 Partly Cloudy 40 4.4 36 2.2 86 86 NW 3 6 30.22 1023 8 13 0.00 0.00
5:53 am 05:53 Clear 39 3.9 35 1.7 86 86 ENE 6 9 30.24 1024 7 11 0.00 0.00
6:53 am 06:53 Clear 40 4.4 36 2.2 86 86 N 3 6 30.25 1024 9 14 0.00 0.00
7:53 am 07:53 Sunny 42 5.6 37 2.8 82 82 Calm 30.27 1025 7 11 0.00 0.00
8:53 am 08:53 Sunny 49 9.4 43 6.1 80 80 Calm 30.27 1025 10 16 0.00 0.00
9:53 am 09:53 Sunny 54 12.2 45 7.2 72 72 Calm 30.27 1025 10 16 0.00 0.00
10:53 am 10:53 Sunny 57 13.9 42 5.6 58 58 Calm 30.27 1025 10 16 0.00 0.00
11:53 am 11:53 Sunny 59 15 41 5 51 51 Calm 30.24 1024 10 16 0.00 0.00
12:53 pm 12:53 Sunny 62 16.7 43 6.1 50 50 Calm 30.21 1023 10 16 0.00 0.00
1:53 pm 13:53 Sunny 64 17.8 43 6.1 46 46 Calm 30.18 1022 10 16 0.00 0.00
2:41 pm 14:41 Mostly Sunny 66 18.9 44 6.7 45 45 WNW 5 7 30.12 1020 10 16 0.00 0.00
2:53 pm 14:53 Mostly Sunny 66 18.9 43 6.1 43 43 Calm 30.16 1021 10 16 0.00 0.00
3:53 pm 15:53 Sunny 67 19.4 44 6.7 44 44 N 3 6 30.16 1021 10 16 0.00 0.00
4:53 pm 16:53 Clear 59 15 46 7.8 62 62 Calm 30.15 1021 10 16 0.00 0.00
5:53 pm 17:53 Clear 55 12.8 45 7.2 69 69 Calm 30.15 1021 10 16 0.00 0.00
6:53 pm 18:53 Clear 52 11.1 44 6.7 75 75 NNE 3 6 30.16 1021 10 16 0.00 0.00
7:53 pm 19:53 Clear 51 10.6 44 6.7 77 77 Calm 30.16 1021 10 16 0.00 0.00
8:53 pm 20:53 Clear 49 9.4 43 6.1 80 80 Calm 30.16 1022 10 16 0.00 0.00
9:53 pm 21:53 Clear 49 9.4 44 6.7 83 83 NNW 3 6 30.17 1022 10 16 0.00 0.00
10:53 pm 22:53 Clear 48 8.9 44 6.7 86 86 WNW 3 6 30.16 1021 10 16 0.00 0.00
11:53 pm 23:53 Clear 45 7.2 40 4.4 83 83 Calm 30.16 1022 10 16 0.00 0.00

Powered by AerisWeather